Lapse_Rate
7.7 7.1 5.9 5.3 6.0 6.2 6.1 5.5 5.2 5.5 5.8 6.4 6.5 6.5 6.5 6.3 6.4 6.5 6.4 6.6 6.7 6.6 6.5 6.5 6.6 6.6 6.7 6.6 6.5 6.4 6.1 6.3 6.6 6.4 6.6 6.4 6.3 6.2 6.1 6.1 5.9 5.7 5.6 5.8 6.0
7.6 6.8 5.6 5.7 6.3 5.9 6.1 5.4 5.2 5.3 5.8 6.3 6.3 6.3 6.2 6.4 6.1 6.3 6.6 6.6 6.5 6.4 6.5 6.4 6.3 6.5 6.5 6.4 6.4 6.3 6.4 6.5 6.5 6.4 6.3 6.1 6.1 6.1 6.1 6.1 5.9 5.6 5.5 5.8 5.9
6.7 6.7 6.2 5.4 6.1 6.0 5.9 5.4 5.5 5.2 5.6 5.9 6.1 6.2 6.1 6.3 6.3 6.0 6.2 6.4 6.5 6.5 6.3 6.4 6.3 6.3 6.5 6.4 6.4 6.3 6.2 6.2 6.2 6.1 6.0 5.9 5.9 5.9 6.1 6.4 5.8 6.1 5.9 5.7 5.7
6.4 6.4 5.9 6.4 5.8 5.8 6.0 5.5 5.5 5.2 5.3 5.7 5.9 6.1 6.1 6.1 6.2 6.1 6.2 6.3 6.3 6.4 6.4 6.2 6.2 6.3 6.5 6.5 6.3 6.1 6.0 6.0 5.8 5.9 5.9 5.9 5.8 5.8 6.2 5.8 6.2 6.0 5.9 5.9 5.6
6.6 6.5 6.4 6.9 6.0 5.9 5.5 5.6 5.4 5.3 5.3 5.5 5.8 5.9 6.0 6.1 6.3 6.2 6.2 6.3 6.2 6.4 6.3 6.2 6.2 6.3 6.4 6.5 6.3 6.1 6.0 5.9 5.9 5.7 5.7 5.6 5.7 5.8 6.1 5.7 5.6 5.6 5.6 5.7 5.7
6.5 7.0 7.2 6.4 6.1 5.6 5.4 5.6 5.6 5.6 5.3 5.4 5.6 5.9 5.9 6.0 6.1 6.1 6.1 6.2 6.2 6.2 6.2 6.3 6.3 6.3 6.3 6.3 6.2 6.2 6.0 6.0 5.8 5.7 5.7 5.8 5.8 5.8 5.7 5.6 5.4 5.5 5.5 5.4 5.5
6.3 6.0 6.3 5.8 5.9 5.9 5.8 5.5 5.6 5.5 5.5 5.6 5.8 5.8 5.9 6.0 5.8 6.0 6.1 6.2 6.3 6.3 6.3 6.3 6.3 6.3 6.3 6.2 6.3 6.1 5.8 5.9 5.9 5.7 5.6 5.6 6.0 5.7 5.5 5.2 5.1 5.4 5.4 5.5 5.4
5.7 5.8 5.8 6.0 6.0 5.8 5.6 5.4 5.6 5.7 5.7 5.9 6.0 6.0 6.0 6.1 5.9 6.0 6.2 6.3 6.4 6.3 6.5 6.4 6.4 6.3 6.3 6.1 6.1 6.0 5.9 5.8 5.6 5.5 5.4 5.5 6.4 5.7 5.1 4.9 5.7 5.7 5.6 5.4 5.2
5.6 5.9 6.0 5.9 5.8 5.8 5.8 5.4 5.6 5.9 6.1 6.1 6.1 6.2 6.2 6.2 6.1 6.3 6.2 6.3 6.4 6.4 6.4 6.5 6.4 6.3 6.1 6.0 5.9 5.9 5.7 5.8 5.5 5.4 5.3 5.3 6.3 5.4 5.0 5.0 6.0 5.9 5.7 5.5 5.2
5.8 6.0 5.8 5.7 5.8 5.8 5.8 5.9 5.7 6.0 6.1 6.3 6.3 6.2 6.2 6.3 6.3 6.3 6.2 6.3 6.3 6.4 6.4 6.4 6.3 6.1 6.0 6.0 6.0 5.9 5.7 5.6 5.4 5.0 5.5 5.6 6.6 6.7 5.8 6.2 5.9 5.7 5.7 5.7 5.8
5.9 5.7 5.7 5.9 6.0 5.8 5.8 6.0 6.1 6.2 6.3 6.4 6.3 6.6 6.3 6.3 6.4 6.4 6.4 6.4 6.5 6.5 6.4 6.4 6.3 6.2 6.1 6.0 5.9 5.8 5.7 5.8 5.4 5.1 5.7 5.9 6.6 6.7 6.5 6.3 6.5 6.4 6.2 5.9 5.6
5.3 5.3 5.8 5.7 5.6 5.7 6.0 6.3 6.1 6.2 6.4 6.4 6.4 6.5 6.5 6.4 6.5 6.6 6.6 6.6 6.5 6.5 6.3 6.3 6.2 6.2 6.1 5.9 5.7 5.6 5.6 5.5 5.4 5.1 5.2 6.2 6.7 7.0 6.8 6.7 6.5 6.2 6.1 6.0 5.6
5.4 5.0 5.1 5.2 5.5 5.6 5.5 5.8 6.0 6.4 5.8 6.0 6.1 6.3 6.3 6.3 6.4 6.4 6.4 6.4 6.5 6.4 6.5 6.4 6.3 6.1 6.0 5.8 5.7 5.5 5.4 5.1 5.0 5.5 5.7 6.1 6.7 6.7 6.6 6.6 6.4 6.4 6.3 5.9 5.6
5.3 5.5 5.5 5.6 5.7 5.8 5.7 6.3 6.3 6.4 6.1 5.8 5.9 6.0 6.1 6.3 6.3 6.2 6.3 6.4 6.4 6.3 6.3 6.3 6.1 6.0 5.8 5.7 5.5 5.6 5.3 5.3 5.3 5.1 5.2 5.5 5.5 6.7 6.8 6.5 6.4 6.4 6.3 6.4 5.8
5.8 5.8 5.8 5.6 5.9 5.9 6.3 6.3 6.4 6.7 3.8 6.1 6.2 6.0 6.4 6.5 6.2 6.2 6.2 6.3 6.3 6.2 6.2 6.0 5.8 5.7 5.6 5.6 5.8 5.8 5.8 5.3 4.9 4.5 4.7 4.9 4.9 6.9 6.7 6.4 6.5 6.6 6.4 6.2 6.1
5.8 6.0 6.1 5.9 6.0 6.0 6.2 6.8 6.8 6.9 5.6 6.2 6.2 6.1 6.2 6.2 6.2 6.1 6.2 6.2 6.2 6.2 6.2 6.2 6.2 6.0 5.9 5.8 5.7 5.8 5.7 5.1 4.3 4.1 3.2 4.8 4.8 6.9 6.6 6.7 6.7 6.4 6.3 6.2 6.2
6.2 6.3 6.4 6.4 6.5 6.7 6.8 6.8 6.8 6.4 6.1 6.2 6.2 6.2 6.4 6.3 6.2 6.1 6.2 6.3 6.3 6.2 6.2 6.1 6.1 6.0 5.9 5.8 5.8 5.6 5.6 5.0 3.7 2.8 3.2 4.5 4.4 7.0 6.6 6.6 6.6 6.5 6.4 6.4 6.4
6.5 6.5 6.8 6.9 6.9 7.0 7.0 6.9 6.9 6.1 6.0 6.2 6.0 6.1 6.2 6.1 6.0 6.0 6.0 5.9 5.9 5.9 5.9 5.9 6.2 5.9 5.7 5.5 5.3 5.1 5.1 4.6 3.4 2.6 2.8 4.2 4.5 7.0 6.8 6.7 6.6 6.4 6.4 6.4 6.5
6.9 7.0 6.9 6.8 6.9 6.9 7.0 7.1 6.4 6.4 6.3 6.1 6.0 5.9 5.7 5.6 5.6 5.5 5.5 5.4 5.4 5.5 5.6 5.5 5.7 5.6 5.5 5.4 5.2 5.1 4.8 4.7 4.3 3.6 3.2 4.8 6.2 7.1 7.1 6.9 6.6 6.4 6.4 6.4 6.5
6.3 6.6 6.6 6.9 6.9 7.0 7.0 6.7 6.2 6.1 5.9 5.8 5.9 5.8 5.8 5.7 5.6 5.6 5.5 5.5 5.5 5.5 5.5 5.4 5.2 5.5 5.3 5.2 5.1 4.9 4.8 4.6 4.6 3.2 3.2 4.5 5.2 7.1 7.1 7.1 6.8 6.6 6.6 6.5 6.4
6.2 6.4 6.5 6.7 6.8 6.8 6.9 6.5 6.2 6.0 5.9 5.7 5.6 5.6 5.5 5.5 5.7 5.7 5.7 5.6 5.5 5.5 5.4 5.3 5.2 5.3 5.1 5.2 5.0 4.7 4.6 4.6 4.4 4.1 2.7 2.6 6.0 7.5 7.3 7.3 7.0 6.8 6.5 6.5 6.5
6.3 6.4 6.3 6.4 6.4 6.5 6.4 6.3 6.2 6.1 6.0 5.9 5.7 5.7 5.7 5.7 5.6 5.5 5.5 5.4 5.3 5.2 5.2 5.1 5.0 5.2 5.4 5.1 4.8 4.4 4.1 4.1 4.2 4.1 3.8 3.4 5.5 7.3 7.2 7.0 6.8 6.4 6.3 6.0 6.4
6.2 6.3 6.3 6.3 6.2 6.2 6.1 6.1 6.0 5.9 5.8 5.7 5.7 5.7 5.6 5.5 5.4 5.4 5.3 5.2 5.1 5.1 5.0 4.9 4.6 4.9 5.3 5.0 4.8 4.4 4.9 4.5 4.1 4.0 3.8 3.3 6.1 7.1 6.8 6.8 6.5 6.3 6.3 6.4 6.6
5.9 6.0 6.1 6.2 6.1 5.9 5.9 6.0 5.9 5.8 5.8 5.6 5.5 5.5 5.4 5.5 5.4 5.3 5.2 5.2 5.2 5.1 4.9 4.6 4.6 4.9 5.3 5.4 5.0 4.5 4.5 4.4 4.3 3.9 4.1 4.5 6.2 7.9 6.7 6.5 6.5 6.5 6.4 6.6 6.6
5.6 5.6 5.7 5.8 5.9 5.9 5.9 5.8 5.7 5.6 5.7 5.6 5.6 5.5 5.3 5.2 5.2 5.2 5.1 5.1 5.1 4.9 4.8 4.4 4.5 4.7 4.9 5.2 4.9 4.7 4.6 4.2 3.8 4.2 3.6 6.7 5.9 7.8 6.9 6.6 6.8 6.6 6.5 6.6 6.5
5.1 5.1 5.2 5.5 5.5 5.6 5.6 5.6 5.5 5.5 5.3 5.3 5.2 5.2 5.1 5.0 4.7 4.6 4.8 4.8 4.7 4.9 4.5 4.0 4.2 4.2 4.6 5.8 5.4 5.3 5.9 5.4 5.1 4.9 4.6 6.1 6.4 6.8 6.5 6.3 6.2 6.3 6.5 6.4 6.2
4.8 4.8 4.8 4.9 5.0 5.2 5.2 5.2 5.2 5.2 5.3 5.3 5.1 5.0 5.0 5.0 4.8 4.9 5.0 5.1 4.6 4.4 4.1 3.5 3.5 3.6 4.0 4.6 4.7 5.9 7.0 6.8 6.6 6.8 6.5 5.8 7.1 6.3 6.7 6.5 6.6 6.7 6.2 6.3 5.9
Wind_Speed
11 12 11 19 18 7 12 23 24 19 15 13 11 12 12 17 23 15 13 9 8 14 9 2 6 5 5 5 5 2 4 2 4 5 2 3 3 4 3 3 4 2 2 4 5
13 13 16 21 16 15 8 26 22 19 16 14 11 8 7 6 10 16 15 20 15 13 6 7 5 6 4 3 4 5 3 4 1 1 1 0 2 3 6 4 3 5 1 4 4
20 27 25 20 16 19 5 27 21 19 17 14 9 2 5 3 6 6 23 21 19 11 2 1 2 4 5 4 5 2 2 2 2 2 2 2 3 3 2 6 6 5 5 7 7
26 23 20 18 20 17 9 24 21 19 17 11 4 6 8 4 4 5 23 21 17 13 5 6 6 4 4 4 4 5 5 3 1 1 1 3 4 6 4 7 3 6 7 6 10
27 23 19 15 13 12 7 25 21 17 12 5 2 1 4 8 5 9 19 18 11 5 7 5 6 3 5 3 3 4 1 2 2 3 3 2 5 6 8 10 8 8 8 9 7
23 23 26 23 30 22 28 25 20 16 9 6 6 7 6 9 9 15 11 9 8 7 6 8 3 2 5 3 4 1 3 4 2 2 2 3 4 2 4 4 3 1 5 6 5
23 30 29 29 34 30 26 21 17 14 14 11 8 6 17 5 5 10 10 5 5 3 5 3 1 6 1 4 1 1 2 3 3 2 2 3 7 8 7 4 6 8 8 5 4
26 27 23 23 24 23 23 17 14 12 12 11 11 6 5 4 6 7 9 5 7 5 4 4 5 7 4 2 5 4 4 3 1 1 1 2 10 4 4 3 10 11 7 4 1
21 19 19 21 22 20 16 13 13 16 14 6 8 7 3 8 5 5 4 4 5 5 6 3 5 5 6 4 4 6 1 2 7 3 2 2 10 5 1 7 13 9 7 3 5
25 21 19 18 18 15 13 12 17 8 7 4 3 6 5 3 4 5 4 4 5 4 5 8 6 4 5 5 2 1 2 3 5 3 3 6 20 19 7 7 10 8 5 4 6
25 25 21 17 16 13 6 4 5 8 11 5 1 6 1 5 3 6 4 3 4 7 4 4 7 3 1 2 3 3 0 3 5 3 7 4 14 20 15 7 6 5 5 6 7
26 23 19 19 16 6 6 5 1 3 6 6 3 4 1 1 3 9 5 4 5 4 2 6 3 2 2 1 1 1 2 5 6 3 4 6 19 12 6 2 2 6 6 7 6
21 19 16 6 1 9 6 4 5 2 6 4 2 3 3 4 3 7 4 2 5 6 5 5 2 1 2 2 3 2 2 2 5 7 1 8 7 5 2 3 3 5 5 5 7
16 16 17 3 6 2 3 6 5 1 5 9 6 4 2 1 4 2 3 2 5 3 2 4 1 1 1 2 1 3 3 2 5 5 3 5 4 6 4 8 6 8 8 8 8
13 15 14 8 4 2 2 6 2 3 6 5 6 1 3 4 1 6 2 4 3 2 4 2 3 2 2 2 1 4 2 3 1 1 4 1 3 7 3 6 6 7 8 9 8
14 12 3 6 3 2 5 2 3 6 1 5 3 4 4 3 3 3 3 4 2 3 3 1 1 2 2 2 1 4 3 5 3 1 3 2 4 5 4 6 5 3 4 7 8
13 9 4 3 2 3 1 2 5 6 3 3 2 4 3 3 3 3 4 5 3 4 5 4 1 1 1 2 2 7 5 3 5 4 4 2 2 10 7 7 7 8 8 7 8
10 2 4 2 4 4 2 5 9 2 3 3 1 3 3 5 3 4 3 4 3 4 2 3 6 1 2 2 3 2 4 4 4 2 5 1 6 6 6 5 7 7 8 7 8
1 2 2 6 5 3 5 6 6 6 3 3 2 3 4 2 0 4 0 1 1 1 3 3 4 1 2 1 4 1 1 2 3 2 3 3 7 10 6 5 4 8 7 9 9
2 2 2 7 5 4 5 3 2 3 1 1 3 3 3 2 1 2 1 2 3 2 3 3 4 2 2 1 1 2 4 2 3 2 5 5 6 6 4 6 5 5 8 9 7
4 3 2 7 2 5 4 3 3 1 1 2 2 1 2 2 1 1 3 2 4 3 3 4 3 4 1 5 6 2 1 1 2 4 3 4 7 8 9 8 7 8 8 8 8
3 2 3 3 4 2 2 4 2 2 1 1 2 1 2 1 1 1 2 3 5 5 2 1 3 4 8 1 1 3 5 5 4 3 2 1 8 4 8 7 6 8 8 7 7
2 1 2 3 3 1 1 1 1 2 2 2 2 3 2 2 0 3 2 1 5 5 5 4 0 4 6 4 2 4 5 4 3 2 6 4 7 3 4 7 8 8 9 9 8
2 2 4 4 1 5 2 1 1 0 1 2 2 1 0 2 3 2 3 3 5 4 5 4 4 7 6 4 3 4 5 6 6 3 4 11 16 23 13 13 13 10 10 9 9
3 1 2 1 3 2 2 2 1 1 1 1 2 4 5 2 2 4 3 2 2 3 4 4 5 5 7 14 10 15 15 10 11 13 9 3 10 22 15 10 9 9 9 9 10
2 2 2 1 1 1 1 4 5 2 5 3 4 1 6 5 7 4 3 2 5 1 5 1 4 1 6 14 9 11 16 19 21 22 21 27 30 30 28 18 11 9 8 9 10
1 1 3 2 2 2 3 3 4 2 3 4 7 3 5 10 7 7 6 6 5 7 6 4 2 3 6 4 9 9 8 13 8 6 20 14 20 15 18 13 10 9 7 9 9
Wind_Direction
166 188 195 172 166 148 210 149 132 139 137 138 141 120 90 87 66 52 42 347 336 338 340 326 31 22 44 58 38 84 63 149 181 143 165 359 35 339 281 259 334 289 191 154 320
179 184 161 132 119 110 93 131 137 137 134 137 137 112 61 22 68 57 352 354 352 347 25 41 20 37 50 36 24 66 92 175 6 72 125 189 40 305 346 337 266 284 319 356 344
146 137 121 113 99 94 74 129 134 129 127 127 127 42 330 15 67 332 345 354 358 358 89 103 34 55 64 38 10 51 86 140 32 115 9 335 330 293 266 283 237 280 285 315 316
109 115 109 112 123 98 125 126 124 123 121 127 98 55 59 30 94 282 341 348 1 20 41 28 26 49 69 69 20 90 42 29 200 32 355 305 310 299 220 242 339 297 287 292 307
96 98 105 98 106 127 143 116 114 112 117 121 30 116 71 51 47 308 332 354 13 36 47 42 48 60 85 75 63 72 335 15 27 292 288 295 257 248 264 276 292 293 308 302 314
89 86 82 68 121 155 121 111 106 87 91 121 111 86 66 74 269 323 335 353 26 42 25 40 81 70 90 69 74 54 339 302 338 316 311 302 291 34 267 313 314 332 303 313 328
81 93 79 79 100 104 103 102 99 81 77 77 73 82 63 111 318 338 12 5 11 39 75 37 346 71 82 76 38 64 20 352 9 323 301 8 289 227 236 341 297 302 299 316 155
89 99 74 66 78 89 93 99 94 74 64 64 59 66 83 303 332 15 349 349 12 39 77 39 61 95 55 122 28 42 46 12 323 320 345 65 276 266 220 297 294 298 306 287 359
88 76 61 50 57 70 83 77 65 60 55 43 38 84 52 330 22 330 18 3 341 18 27 58 56 70 23 68 26 10 229 320 327 10 298 187 275 202 212 295 286 285 290 290 310
69 68 55 50 44 40 45 72 58 46 8 44 75 57 9 335 321 343 332 16 29 358 24 38 45 71 33 55 222 301 5 309 260 303 316 263 264 284 275 256 261 279 242 286 296
50 47 41 32 32 25 16 8 25 11 29 72 335 89 8 307 350 356 360 6 30 46 59 7 68 91 275 23 132 117 160 274 262 275 317 244 280 291 298 261 269 235 250 277 285
41 39 40 37 41 51 54 69 68 173 68 26 50 64 36 347 37 356 11 75 54 67 348 29 85 204 267 352 65 76 329 292 281 252 306 333 301 292 289 295 204 210 237 260 293
37 31 22 20 171 46 83 74 327 1 81 7 30 45 329 39 59 341 22 54 75 51 27 111 147 161 54 356 0 264 220 287 250 317 299 317 306 333 345 314 266 249 246 266 264
35 32 18 143 44 338 37 323 353 347 81 335 348 4 7 80 39 330 14 78 38 124 88 86 239 73 48 249 179 292 198 298 313 19 296 34 282 301 316 296 255 253 242 254 265
16 20 39 62 140 48 272 325 8 54 67 299 317 303 338 74 239 4 337 35 91 94 80 235 169 198 224 227 181 250 344 312 344 42 17 357 67 270 337 289 283 272 244 249 253
2 11 55 34 44 244 304 322 59 41 276 335 315 353 31 34 32 319 43 49 118 92 15 135 244 192 241 296 251 339 17 42 54 19 23 240 121 279 210 216 272 258 247 255 264
352 358 33 115 242 297 262 71 38 89 285 337 355 24 1 343 17 25 28 22 50 50 357 333 263 267 194 351 24 45 47 342 356 9 222 231 54 246 251 245 237 271 278 262 264
336 61 35 56 328 333 63 55 68 183 212 270 328 355 31 8 20 31 39 14 57 72 88 65 336 193 152 185 191 70 120 139 245 310 283 261 233 251 215 246 264 263 263 266 264
10 356 48 337 345 46 66 51 180 209 181 143 46 47 343 12 19 31 32 194 287 63 98 44 282 280 197 158 120 120 36 171 116 257 294 252 284 291 258 272 261 264 267 264 254
64 35 19 328 343 58 72 125 156 227 137 61 151 180 180 260 162 56 179 194 166 148 136 186 323 270 323 96 54 175 158 43 14 13 302 288 280 240 274 224 239 263 256 266 261
53 42 286 344 44 48 99 199 202 229 87 148 210 186 244 261 248 248 209 207 190 170 134 139 132 281 99 200 186 121 294 100 124 155 196 299 269 214 213 207 215 241 253 265 278
91 44 310 5 48 30 97 160 168 179 129 160 141 198 212 270 305 267 242 237 175 151 162 197 148 269 228 201 202 191 203 156 129 239 240 169 271 254 230 245 260 270 280 281 271
89 240 325 89 92 51 259 112 161 124 227 197 237 207 167 186 280 203 255 342 161 152 168 179 291 329 344 4 14 218 201 174 121 87 206 158 260 4 320 289 270 261 276 277 277
72 31 335 47 96 125 137 163 169 293 183 204 244 61 69 267 223 252 243 214 194 193 147 135 178 199 207 208 156 221 216 195 167 175 205 229 277 269 283 284 286 277 267 274 274
33 322 193 324 357 68 96 151 150 242 219 220 283 212 186 237 238 233 240 274 197 199 138 149 232 202 252 262 251 254 248 223 208 216 214 265 242 273 281 274 265 270 283 289 291
77 78 8 188 298 116 27 203 191 222 164 228 202 229 200 212 204 233 191 216 229 59 163 186 271 314 261 257 255 258 243 232 234 237 251 259 273 274 275 289 279 277 281 285 284
348 16 106 357 8 70 233 193 210 177 215 198 197 178 214 237 228 232 217 218 221 170 193 171 211 4 274 331 305 281 233 195 196 218 220 231 238 268 284 277 265 267 268 264 267